Hourly Data Report for May 14, 2012

All times are specified in Local Standard Time (LST). Add 1 hour to adjust for Daylight Saving Time where and when it is observed.

ST. JOHN'S INTL A
NEWFOUNDLAND

47°37'07.000" N
52°45'09.000" W
140.50 m
8403505
71801
YYT

Download Data

Hourly Data (May 2012)
Hourly Data Report for May 14, 2012
Temp Definition
°C
Dew Point Temp Definition
°C
Rel Hum Definition
%
Wind Dir Definition
10's deg

Wind Spd Definition
km/h
Visibility Definition
km
Stn Press Definition
kPa
Hmdx Definition


Wind Chill Definition


Weather Definition


TIME
00:30 Legend Double Dagger 6.5 4.8 89 25 23 10.0 100.50     LegendNANA
01:30 Legend Double Dagger 6.0 4.8 92 25 29 10.0 100.49     LegendNANA
02:30 Legend Double Dagger 4.7 4.0 95 26 22 10.0 100.52     Clear
03:30 Legend Double Dagger 3.5 3.4 99 27 32 0.4 100.56     Fog
04:30 Legend Double Dagger 3.1 3.1 100 27 31 0.4 100.61     Fog
05:30 Legend Double Dagger 3.2 3.2 100 27 14 0.4 100.75     Fog
06:30 Legend Double Dagger 3.3 3.3 100 27 16 0.2 100.86     Fog
07:30 Legend Double Dagger 4.2 4.2 100 29 14 0.4 100.91     Fog
08:30 Legend Double Dagger 4.7 4.7 100 27 12 0.4 100.93     Fog
09:30 Legend Double Dagger 4.9 4.9 100 26 10 2.4 101.00     Fog
10:30 Legend Double Dagger 5.8 5.5 98 29 7 8.1 101.00     Fog
11:30 Legend Double Dagger 6.8 5.9 94 24 9 10.0 101.00     Cloudy
12:30 Legend Double Dagger 7.9 6.7 92 23 6 10.0 101.03     LegendNANA
13:30 Legend Double Dagger 9.5 7.1 85 11 7 10.0 101.06     LegendNANA
14:30 Legend Double Dagger 10.4 6.8 78 14 12 10.0 101.05     Mainly Clear
15:30 Legend Double Dagger 10.1 7.2 82 13 13 10.0 101.04     LegendNANA
16:30 Legend Double Dagger 8.8 6.1 83 15 16 10.0 101.06     LegendNANA
17:30 Legend Double Dagger 7.5 5.0 84 15 15 10.0 101.07     Mainly Clear
18:30 Legend Double Dagger 5.9 4.1 88 15 11 10.0 101.11     LegendNANA
19:30 Legend Double Dagger 3.1 2.5 96 15 11 10.0 101.12     LegendNANA
20:30 Legend Double Dagger 3.7 3.1 96 17 10 10.0 101.17     Mainly Clear
21:30 Legend Double Dagger 2.6 2.0 96 16 12 10.0 101.19     LegendNANA
22:30 Legend Double Dagger 2.0 1.7 98 21 8 10.0 101.20     LegendNANA
23:30 Legend Double Dagger 5.6 4.6 93 25 19 10.0 101.19     Clear

Notes on Data Quality.

Legend

  • E = Estimated
  • M = Missing
  • NA = Not Available
  • ‡ = Partner data that is not subject to review by the National Climate Archives
Date modified: